CW8248 Weather Reports


Display with metric or nautical units.
time (UTC)temp
F
wind
direction
speed
MPH
gust
MPH
rain 1hr
in
rain 24hr
in
rain mn
in
humidity
%
barometer
mb
20260906113524 53 279 0.0 0.0 0.01 0.02 0.02 83 1015.8
20260906113025 53 279 0.0 3.0 0.01 0.02 0.02 83 1015.8
20260906112525 53 279 1.0 3.0 0.01 0.02 0.02 83 1015.7
20260906112025 53 329 0.0 0.0 0.01 0.02 0.02 82 1015.7
20260906111523 53 329 0.0 1.0 0.01 0.02 0.02 81 1015.7
20260906111024 53 329 0.0 5.0 0.01 0.02 0.02 82 1015.7
20260906110524 53 338 2.0 5.0 0.01 0.02 0.02 82 1015.7
20260906110024 52 359 1.0 4.0 0.01 0.02 0.02 82 1015.7
20260906105522 52 359 0.0 4.0 0.01 0.02 0.02 83 1015.8
20260906105026 52 56 0.0 1.0 0.01 0.02 0.02 82 1016.0
20260906104537 52 56 0.0 1.0 0.01 0.02 0.02 83 1016.0
20260906104022 52 56 0.0 1.0 0.01 0.02 0.02 82 1015.9
20260906103522 52 56 0.0 1.0 0.01 0.01 0.01 82 1016.0
20260906103040 52 56 0.0 0.0 0.01 0.01 0.01 82 1016.1
20260906102522 52 56 0.0 1.0 0.01 0.01 0.01 82 1016.2
20260906102021 52 56 0.0 1.0 0.01 0.01 0.01 82 1016.2
20260906101522 52 56 0.0 3.0 0.01 0.01 0.01 82 1016.2
20260906101025 52 58 0.0 6.0 0.01 0.01 0.01 82 1016.3
20260906100521 52 45 1.0 6.0 0.01 0.01 0.01 82 1016.3
20260906100027 52 46 0.0 1.0 0.01 0.01 0.01 82 1016.1
20260906095521 52 46 0.0 2.0 0.01 0.01 0.01 82 1016.1
20260906095023 52 46 0.0 2.0 0.01 0.01 0.01 81 1016.2
20260906094520 52 46 1.0 2.0 0.01 0.01 0.01 81 1016.2
20260906094019 52 46 1.0 2.0 0.01 0.01 0.01 81 1016.3
20260906093519 52 53 0.0 6.0 0.00 0.00 0.00 80 1016.3
20260906093029 52 53 1.0 6.0 0.00 0.00 0.00 80 1016.3
20260906092518 53 212 0.0 4.0 0.00 0.00 0.00 80 1016.2
20260906092018 53 212 1.0 4.0 0.00 0.00 0.00 80 1016.2
20260906091522 53 212 0.0 2.0 0.00 0.00 0.00 79 1016.0
20260906091016 53 212 0.0 2.0 0.00 0.00 0.00 78 1015.9
20260906090516 53 212 0.0 1.0 0.00 0.00 0.00 78 1015.9
20260906090017 53 212 0.0 1.0 0.00 0.00 0.00 77 1015.9
20260906085617 53 212 0.0 1.0 0.00 0.00 0.00 77 1016.0
20260906085014 53 212 0.0 1.0 0.00 0.00 0.00 77 1016.0
20260906084514 53 212 0.0 1.0 0.00 0.00 0.00 77 1016.0
20260906084014 53 212 0.0 1.0 0.00 0.00 0.00 77 1016.1
20260906083514 53 212 0.0 1.0 0.00 0.00 0.00 76 1016.1
20260906083014 54 212 0.0 2.0 0.00 0.00 0.00 75 1016.0
20260906082514 54 212 1.0 2.0 0.00 0.00 0.00 76 1016.1
20260906082014 53 212 0.0 2.0 0.00 0.00 0.00 76 1016.0
20260906081516 53 212 0.0 1.0 0.00 0.00 0.00 76 1015.9
20260906081015 53 212 0.0 2.0 0.00 0.00 0.00 76 1015.8
20260906080514 54 212 0.0 2.0 0.00 0.00 0.00 76 1015.8
20260906080014 54 214 0.0 1.0 0.00 0.00 0.00 76 1015.8
20260906075513 54 214 0.0 1.0 0.00 0.00 0.00 76 1016.0
20260906075013 54 214 0.0 0.0 0.00 0.00 0.00 76 1015.8
20260906074512 54 214 0.0 1.0 0.00 0.00 0.00 76 1015.7
20260906074010 54 214 0.0 2.0 0.00 0.00 0.00 77 1015.8
20260906073510 53 214 0.0 3.0 0.00 0.00 0.00 78 1015.7
20260906073010 53 214 0.0 3.0 0.00 0.00 0.00 78 1015.8
20260906072510 53 214 0.0 1.0 0.00 0.00 0.00 78 1015.8
20260906072008 53 214 0.0 0.0 0.00 0.00 0.00 78 1015.9
20260906071508 53 214 0.0 0.0 0.00 0.00 0.00 78 1016.0
20260906071008 53 214 0.0 0.0 0.00 0.00 0.00 78 1016.1
20260906070507 53 214 0.0 1.0 0.00 0.00 0.00 78 1016.1
20260906070017 53 214 0.0 2.0 0.00 0.00 0.00 78 1016.1
20260906065510 53 214 0.0 2.0 0.00 0.00 0.00 78 1016.1
20260906065006 53 214 0.0 2.0 0.00 0.00 0.00 78 1016.2
20260906064505 53 214 0.0 2.0 0.00 0.00 0.00 78 1016.3
20260906064009 53 214 0.0 2.0 0.00 0.00 0.00 77 1016.3
20260906063505 53 214 0.0 1.0 0.00 0.00 0.00 77 1016.3
20260906063006 54 214 0.0 1.0 0.00 0.00 0.00 77 1016.3
20260906062505 54 214 0.0 1.0 0.00 0.00 0.00 76 1016.3
20260906062005 54 214 0.0 1.0 0.00 0.00 0.00 76 1016.3
20260906061509 54 214 0.0 1.0 0.00 0.00 0.00 76 1016.3
20260906061005 54 214 0.0 2.0 0.00 0.00 0.00 75 1016.3
20260906060504 54 214 0.0 1.0 0.00 0.00 0.00 75 1016.3
20260906060005 55 214 0.0 2.0 0.00 0.00 0.00 75 1016.3
20260906055504 55 214 0.0 2.0 0.00 0.00 0.00 75 1016.3
20260906055004 55 214 0.0 2.0 0.00 0.00 0.00 75 1016.3
20260906054503 55 214 0.0 1.0 0.00 0.00 0.00 75 1016.3
20260906054004 55 214 0.0 1.0 0.00 0.00 0.00 75 1016.3
20260906053504 55 214 0.0 2.0 0.00 0.00 0.00 75 1016.4
20260906053005 55 214 0.0 2.0 0.00 0.00 0.00 74 1016.4
20260906052504 55 214 0.0 2.0 0.00 0.00 0.00 74 1016.5
20260906052004 55 214 0.0 2.0 0.00 0.00 0.00 74 1016.4
20260906051503 55 214 1.0 2.0 0.00 0.00 0.00 74 1016.4
20260906051004 55 214 0.0 3.0 0.00 0.00 0.00 74 1016.4
20260906050503 55 214 0.0 3.0 0.00 0.00 0.00 75 1016.4
20260906050003 55 214 1.0 3.0 0.00 0.00 0.00 74 1016.5
20260906045505 55 214 0.0 2.0 0.00 0.00 0.00 74 1016.5
20260906045002 55 214 0.0 2.0 0.00 0.00 0.00 73 1016.5
20260906044502 56 214 0.0 2.0 0.00 0.00 0.00 73 1016.4
20260906044003 56 214 1.0 2.0 0.00 0.00 0.00 73 1016.5
20260906043504 56 214 0.0 2.0 0.00 0.00 0.00 72 1016.4
20260906043002 56 214 0.0 2.0 0.00 0.00 0.00 73 1016.4
20260906042501 56 214 1.0 2.0 0.00 0.00 0.00 73 1016.4
20260906042001 56 214 0.0 2.0 0.00 0.00 0.00 73 1016.4
20260906041502 56 214 0.0 2.0 0.00 0.00 0.00 72 1016.4
20260906041003 56 214 0.0 1.0 0.00 0.00 0.00 72 1016.4
20260906040505 56 214 0.0 2.0 0.00 0.00 0.00 73 1016.3
20260906040002 56 214 0.0 2.0 0.00 0.00 0.00 72 1016.3
20260906035501 56 214 0.0 2.0 0.00 0.00 0.00 72 1016.3
20260906035003 56 214 1.0 2.0 0.00 0.00 0.00 72 1016.2
20260906034602 56 214 0.0 2.0 0.00 0.00 0.00 72 1016.1
20260906034101 57 214 1.0 2.0 0.00 0.00 0.00 72 1016.1
20260906033600 57 214 1.0 2.0 0.00 0.00 0.00 71 1016.2
20260906033122 57 214 0.0 2.0 0.00 0.00 0.00 71 1016.0
20260906032559 57 214 1.0 2.0 0.00 0.00 0.00 71 1015.9
20260906032100 57 214 1.0 2.0 0.00 0.00 0.00 71 1015.7
20260906031614 57 214 1.0 2.0 0.00 0.00 0.00 70 1015.7
20260906031100 57 214 1.0 2.0 0.00 0.00 0.00 70 1015.6
20260906030600 58 214 1.0 2.0 0.00 0.00 0.00 70 1015.6
20260906030059 58 214 0.0 1.0 0.00 0.00 0.00 70 1015.6
20260906025559 58 214 0.0 1.0 0.00 0.00 0.00 70 1015.6
20260906025059 59 214 0.0 2.0 0.00 0.00 0.00 69 1015.6
20260906024606 59 214 0.0 2.0 0.00 0.00 0.00 68 1015.6
20260906024059 59 214 0.0 2.0 0.00 0.00 0.00 69 1015.5
20260906023602 60 214 0.0 2.0 0.00 0.00 0.00 68 1015.5
20260906023103 60 214 0.0 1.0 0.00 0.00 0.00 68 1015.4
20260906022559 60 214 0.0 3.0 0.00 0.00 0.00 67 1015.4
20260906022103 61 214 0.0 3.0 0.00 0.00 0.00 67 1015.5
20260906021604 61 214 0.0 2.0 0.00 0.00 0.00 66 1015.5
20260906021058 62 214 0.0 2.0 0.00 0.00 0.00 64 1015.5
20260906020558 62 214 0.0 2.0 0.00 0.00 0.00 63 1015.4
20260906020058 62 214 0.0 0.0 0.00 0.00 0.00 63 1015.3
20260906015556 63 214 0.0 0.0 0.00 0.00 0.00 62 1015.5
20260906015056 63 214 0.0 1.0 0.00 0.00 0.00 59 1015.4
20260906014557 64 214 0.0 1.0 0.00 0.00 0.00 59 1015.4
20260906014055 65 214 0.0 1.0 0.00 0.00 0.00 58 1015.5
20260906013600 65 213 0.0 3.0 0.00 0.00 0.00 54 1015.6
20260906013104 65 214 1.0 4.0 0.00 0.00 0.00 58 1015.6
20260906012555 65 214 1.0 4.0 0.00 0.00 0.00 58 1015.6
20260906012055 65 214 1.0 2.0 0.00 0.00 0.00 58 1015.6
20260906011555 65 214 0.0 1.0 0.00 0.00 0.00 55 1015.6
20260906011058 65 214 0.0 1.0 0.00 0.00 0.00 54 1015.6
20260906010554 65 214 0.0 2.0 0.00 0.00 0.00 55 1015.6
20260906010054 66 214 0.0 3.0 0.00 0.00 0.00 56 1015.7
20260906005557 66 214 1.0 3.0 0.00 0.00 0.00 56 1015.8
20260906005053 67 214 0.0 5.0 0.00 0.00 0.00 55 1015.8
20260906004553 66 242 1.0 8.0 0.00 0.00 0.00 58 1016.0
20260906004052 67 265 1.0 8.0 0.00 0.00 0.00 57 1015.9
20260906003552 68 181 2.0 6.0 0.00 0.00 0.00 58 1015.8
20260906003053 69 152 2.0 7.0 0.00 0.00 0.00 56 1015.9
20260906002552 70 157 2.0 8.0 0.00 0.00 0.00 54 1016.0
20260906002056 70 169 5.0 8.0 0.00 0.00 0.00 56 1016.1
20260906001552 67 180 2.0 6.0 0.00 0.00 0.00 59 1016.2
20260906001052 66 177 2.0 11.0 0.00 0.00 0.00 59 1016.2
20260906000556 66 215 6.0 11.0 0.00 0.00 0.00 57 1016.1
20260906000059 66 240 3.0 5.0 0.00 0.00 0.00 55 1016.1
20260905235552 66 37 0.0 2.0 0.00 0.00 0.00 54 1016.0
20260905235052 67 38 0.0 2.0 0.00 0.00 0.00 49 1016.0
20260905234556 67 38 0.0 2.0 0.00 0.00 0.00 50 1016.0
20260905234050 67 38 0.0 2.0 0.00 0.00 0.00 48 1015.9
20260905233551 68 38 0.0 1.0 0.00 0.00 0.00 51 1015.9
20260905233053 68 38 0.0 3.0 0.00 0.00 0.00 50 1015.8
20260905232550 68 38 0.0 3.0 0.00 0.00 0.00 47 1015.8
20260905232052 68 38 0.0 2.0 0.00 0.00 0.00 45 1015.7
20260905231550 69 69 0.0 4.0 0.00 0.00 0.00 45 1015.8
20260905231050 68 69 0.0 4.0 0.00 0.00 0.00 48 1015.8
20260905230552 68 9 0.0 4.0 0.00 0.00 0.00 47 1015.8
20260905230049 68 4 0.0 3.0 0.00 0.00 0.00 47 1016.0
20260905225550 68 360 1.0 4.0 0.00 0.00 0.00 45 1015.8
20260905225051 68 9 0.0 5.0 0.00 0.00 0.00 44 1015.8
20260905224549 68 357 1.0 5.0 0.00 0.00 0.00 44 1015.8
20260905224049 69 56 0.0 3.0 0.00 0.00 0.00 44 1015.7
20260905223547 70 27 0.0 4.0 0.00 0.00 0.00 44 1015.8
20260905223048 69 358 0.0 5.0 0.00 0.00 0.00 44 1015.9
20260905222547 70 77 0.0 5.0 0.00 0.00 0.00 42 1015.8
20260905222046 70 20 0.0 5.0 0.00 0.00 0.00 45 1015.9
20260905221549 69 21 0.0 5.0 0.00 0.00 0.00 43 1016.0
20260905221047 69 343 1.0 3.0 0.00 0.00 0.00 43 1015.9
20260905220546 70 191 1.0 3.0 0.00 0.00 0.00 42 1015.9
20260905220046 70 54 0.0 7.0 0.00 0.00 0.00 46 1015.8
20260905215546 69 13 2.0 7.0 0.00 0.00 0.00 42 1015.9
20260905215044 70 191 0.0 3.0 0.00 0.00 0.00 41 1015.9
20260905214545 72 191 1.0 3.0 0.00 0.00 0.00 41 1016.1
20260905214049 74 191 0.0 3.0 0.00 0.00 0.00 40 1016.1
20260905213543 75 191 2.0 4.0 0.00 0.00 0.00 39 1016.2
20260905213047 74 191 3.0 5.0 0.00 0.00 0.00 37 1016.2
20260905212543 73 179 2.0 5.0 0.00 0.00 0.00 37 1016.2
20260905212042 75 179 2.0 4.0 0.00 0.00 0.00 41 1016.3
20260905211600 73 179 2.0 4.0 0.00 0.00 0.00 38 1016.2
20260905211044 72 179 0.0 5.0 0.00 0.00 0.00 41 1016.3
20260905210542 73 179 2.0 6.0 0.00 0.00 0.00 36 1016.3
20260905210053 73 179 4.0 6.0 0.00 0.00 0.00 39 1016.4
20260905205541 72 179 4.0 7.0 0.00 0.00 0.00 40 1016.4
20260905205041 73 178 4.0 7.0 0.00 0.00 0.00 41 1016.4
20260905204544 73 181 5.0 7.0 0.00 0.00 0.00 39 1016.4
20260905204044 76 179 4.0 6.0 0.00 0.00 0.00 39 1016.4
20260905203541 77 196 4.0 7.0 0.00 0.00 0.00 38 1016.4
20260905203041 79 235 4.0 7.0 0.00 0.00 0.00 35 1016.4
20260905202540 82 196 4.0 7.0 0.00 0.00 0.00 33 1016.4
20260905202040 82 212 4.0 6.0 0.00 0.00 0.00 31 1016.5
20260905201549 80 231 4.0 6.0 0.00 0.00 0.00 36 1016.5
20260905201039 80 200 4.0 6.0 0.00 0.00 0.00 36 1016.6
20260905200539 79 191 4.0 7.0 0.00 0.00 0.00 36 1016.6
20260905200037 78 213 4.0 7.0 0.00 0.00 0.00 39 1016.6
20260905195535 75 229 4.0 6.0 0.00 0.00 0.00 43 1016.7
20260905195034 73 222 3.0 6.0 0.00 0.00 0.00 49 1016.7
20260905194534 73 173 3.0 5.0 0.00 0.00 0.00 45 1016.9
20260905194034 73 191 3.0 5.0 0.00 0.00 0.00 41 1016.9
20260905193532 72 182 1.0 8.0 0.00 0.00 0.00 43 1017.0
20260905193036 76 223 4.0 8.0 0.00 0.00 0.00 47 1017.0
20260905192530 74 217 4.0 7.0 0.00 0.00 0.00 48 1017.0
20260905192029 70 180 5.0 7.0 0.00 0.00 0.00 50 1017.0
20260905191530 69 214 4.0 6.0 0.00 0.00 0.00 59 1017.2
20260905191029 68 244 1.0 6.0 0.00 0.00 0.00 49 1017.2
20260905190529 72 222 4.0 6.0 0.00 0.00 0.00 47 1017.2
20260905190029 72 181 4.0 7.0 0.00 0.00 0.00 50 1017.3
20260905185529 72 201 4.0 7.0 0.00 0.00 0.00 51 1017.4
20260905185025 69 200 3.0 6.0 0.00 0.00 0.00 54 1017.5
20260905184524 66 196 1.0 5.0 0.00 0.00 0.00 58 1017.6
20260905184024 67 201 2.0 6.0 0.00 0.00 0.00 57 1017.7
20260905183523 66 231 3.0 6.0 0.00 0.00 0.00 56 1017.7
20260905183031 65 221 1.0 7.0 0.00 0.00 0.00 57 1017.8
20260905182524 67 212 2.0 7.0 0.00 0.00 0.00 60 1017.8
20260905182024 67 186 4.0 5.0 0.00 0.00 0.00 62 1017.9
20260905181521 64 210 3.0 5.0 0.00 0.00 0.00 74 1018.1
20260905181020 60 221 2.0 4.0 0.00 0.00 0.00 74 1018.1
20260905180521 59 221 2.0 4.0 0.00 0.00 0.00 76 1018.1
20260905180018 58 221 1.0 3.0 0.00 0.00 0.00 76 1018.2
20260905175522 58 60 1.0 3.0 0.00 0.00 0.00 74 1018.2
20260905175017 58 60 1.0 3.0 0.00 0.00 0.00 75 1018.2
20260905174516 58 58 0.0 2.0 0.00 0.00 0.00 71 1018.2
20260905174016 58 59 1.0 3.0 0.00 0.00 0.00 70 1018.2
20260905173517 58 59 1.0 3.0 0.00 0.00 0.00 71 1018.2
20260905173043 58 59 0.0 1.0 0.00 0.00 0.00 71 1018.2
20260905172516 58 59 0.0 2.0 0.00 0.00 0.00 70 1018.3
20260905172017 57 59 0.0 3.0 0.00 0.00 0.00 69 1018.3
20260905171516 57 59 0.0 3.0 0.00 0.00 0.00 71 1018.3
20260905171018 57 59 0.0 1.0 0.00 0.00 0.00 71 1018.2
20260905170515 57 59 0.0 0.0 0.00 0.00 0.00 71 1018.3
20260905170016 57 59 0.0 2.0 0.00 0.00 0.00 72 1018.2
20260905165514 58 59 0.0 1.0 0.00 0.00 0.00 71 1018.3
20260905165014 58 59 0.0 2.0 0.00 0.00 0.00 71 1018.3
20260905164513 58 59 0.0 2.0 0.00 0.00 0.00 72 1018.3
20260905164015 57 59 0.0 1.0 0.00 0.00 0.00 72 1018.3
20260905163513 57 59 0.0 1.0 0.00 0.00 0.00 71 1018.3
20260905163013 58 59 0.0 2.0 0.00 0.00 0.00 72 1018.3
20260905162515 57 59 0.0 2.0 0.00 0.00 0.00 73 1018.3
20260905162009 57 59 0.0 1.0 0.00 0.00 0.00 73 1018.2
20260905161508 56 59 0.0 1.0 0.00 0.00 0.00 75 1018.2
20260905161011 56 59 0.0 1.0 0.00 0.00 0.00 75 1018.2
20260905160507 55 59 0.0 2.0 0.00 0.00 0.00 76 1018.2
20260905160006 55 59 0.0 3.0 0.00 0.00 0.00 76 1018.3
20260905155505 55 59 0.0 3.0 0.00 0.00 0.00 77 1018.2
20260905155004 54 60 0.0 2.0 0.00 0.00 0.00 77 1018.2
20260905154613 54 60 0.0 3.0 0.00 0.00 0.00 77 1018.2
20260905154004 54 23 0.0 3.0 0.00 0.00 0.00 78 1018.2
20260905153504 54 23 0.0 2.0 0.00 0.00 0.00 79 1018.1
20260905153001 53 23 0.0 2.0 0.00 0.00 0.00 79 1018.2
20260905152602 53 23 0.0 0.0 0.00 0.00 0.00 79 1018.2
20260905152059 53 23 0.0 1.0 0.00 0.00 0.00 79 1018.3
20260905151601 52 23 0.0 1.0 0.00 0.00 0.00 79 1018.3
20260905151055 52 23 0.0 1.0 0.00 0.00 0.00 79 1018.2
20260905150555 52 23 0.0 2.0 0.00 0.00 0.00 79 1018.3
20260905150054 52 27 0.0 2.0 0.00 0.01 0.00 80 1018.2
20260905145552 52 31 0.0 0.0 0.00 0.01 0.00 80 1018.2
20260905145052 52 31 0.0 1.0 0.00 0.01 0.00 80 1018.2
20260905144557 51 31 0.0 1.0 0.00 0.01 0.00 80 1018.1
20260905144050 51 31 0.0 1.0 0.00 0.01 0.00 80 1018.1
20260905143551 51 31 0.0 1.0 0.00 0.01 0.00 80 1018.1
20260905143051 51 31 0.0 2.0 0.00 0.01 0.00 80 1018.1
20260905142551 51 31 0.0 2.0 0.00 0.01 0.00 80 1018.0
20260905142047 51 31 0.0 2.0 0.00 0.01 0.00 80 1018.0
20260905141547 51 31 0.0 2.0 0.00 0.01 0.00 80 1018.0
20260905141046 51 31 0.0 1.0 0.00 0.01 0.00 80 1018.0
20260905140545 51 31 0.0 1.0 0.00 0.01 0.00 80 1017.9
20260905140046 51 31 0.0 1.0 0.00 0.02 0.00 80 1017.8
20260905135544 51 31 0.0 1.0 0.00 0.02 0.00 80 1017.8
20260905135043 51 31 0.0 1.0 0.00 0.02 0.00 80 1017.7
20260905134554 51 31 0.0 0.0 0.00 0.02 0.00 80 1017.8
20260905134041 51 31 0.0 0.0 0.00 0.02 0.00 80 1017.6
20260905133540 51 31 0.0 1.0 0.00 0.02 0.00 80 1017.6
20260905133041 51 31 0.0 1.0 0.00 0.02 0.00 79 1017.6
20260905132540 51 31 0.0 1.0 0.00 0.02 0.00 79 1017.5
20260905132041 51 31 0.0 0.0 0.00 0.02 0.00 79 1017.4
20260905131538 52 31 0.0 1.0 0.00 0.02 0.00 78 1017.4
20260905131038 52 31 0.0 1.0 0.00 0.02 0.00 78 1017.4
20260905130538 52 31 0.0 1.0 0.00 0.02 0.00 78 1017.4
20260905130037 52 31 0.0 2.0 0.00 0.02 0.00 78 1017.4
20260905125537 52 31 0.0 1.0 0.00 0.02 0.00 78 1017.4
20260905125040 52 31 0.0 3.0 0.00 0.02 0.00 78 1017.3
20260905124541 52 31 0.0 3.0 0.00 0.02 0.00 78 1017.4
20260905124036 52 31 0.0 3.0 0.00 0.02 0.00 77 1017.4
20260905123537 52 31 1.0 3.0 0.00 0.02 0.00 77 1017.4
20260905123036 52 31 0.0 3.0 0.00 0.02 0.00 77 1017.4
20260905122536 52 31 0.0 3.0 0.00 0.02 0.00 77 1017.4
20260905122037 52 27 0.0 1.0 0.00 0.02 0.00 78 1017.5
20260905121535 52 27 0.0 1.0 0.00 0.02 0.00 78 1017.4
20260905121035 52 27 0.0 1.0 0.00 0.02 0.00 78 1017.4
20260905120534 52 27 0.0 1.0 0.00 0.02 0.00 78 1017.3
20260905120035 52 27 0.0 3.0 0.00 0.02 0.00 78 1017.3
20260905115533 52 27 0.0 3.0 0.00 0.02 0.00 78 1017.3
20260905115034 51 2 0.0 2.0 0.00 0.02 0.00 78 1017.3
20260905114534 51 2 0.0 2.0 0.00 0.02 0.00 78 1017.3
20260905114035 51 2 0.0 2.0 0.00 0.02 0.00 78 1017.3